This demonstration page uses our WeatherBlox Daily Observations layout. Learn more.

Left ArrowRight Arrow

34.16533, -84.80231

Hourly Observations for September 7, 2017

Temp ( °F °C ) Dew Point ( °F °C ) Humidity (%) Winds ( mph kmh ) Pressure ( in mb ) Visibility ( mi km ) Precip ( " mm )
12:53 am 00:53 Clear 51 10.6 51 10.6 100 100 Calm 30.06 1018 10 16 0.00 0.00
1:53 am 01:53 Clear 50 10 50 10 100 100 Calm 30.06 1018 10 16 0.00 0.00
2:53 am 02:53 Clear 50 10 50 10 100 100 Calm 30.06 1018 10 16 0.00 0.00
3:53 am 03:53 Clear 49 9.4 49 9.4 100 100 Calm 30.06 1018 10 16 0.00 0.00
4:53 am 04:53 Clear 49 9.4 49 9.4 100 100 Calm 30.06 1018 10 16 0.00 0.00
5:53 am 05:53 Clear 49 9.4 49 9.4 100 100 Calm 30.07 1018 10 16 0.00 0.00
6:53 am 06:53 Clear 48 8.9 48 8.9 100 100 Calm 30.09 1019 10 16 0.00 0.03
7:53 am 07:53 Sunny with Light Rain 50 10 50 10 100 100 Calm 30.11 1020 10 16 0.00 0.03
8:53 am 08:53 Sunny 54 12.2 53 11.7 97 97 Calm 30.13 1020 10 16 0.00 0.03
9:53 am 09:53 Sunny 60 15.6 54 12.2 80 80 VRB 3 6 30.14 1021 10 16 0.00 0.00
10:53 am 10:53 Sunny 67 19.4 53 11.7 61 61 N 5 7 30.14 1021 10 16 0.00 0.00
11:53 am 11:53 Sunny 71 21.7 51 10.6 49 49 N 10 17 30.14 1021 10 16 0.00 0.00
12:53 pm 12:53 Sunny 73 22.8 48 8.9 41 41 NE 7 11 30.13 1020 10 16 0.00 0.00
1:53 pm 13:53 Sunny 74 23.3 45 7.2 36 36 VRB 3 6 30.12 1020 10 16 0.00 0.00
2:53 pm 14:53 Sunny 75 23.9 46 7.8 36 36 NNW 5 7 30.11 1020 10 16 0.00 0.00
3:53 pm 15:53 Sunny 76 24.4 49 9.4 39 39 VRB 3 6 30.09 1019 10 16 0.00 0.00
4:53 pm 16:53 Sunny 77 25 49 9.4 37 37 N 6 9 30.07 1018 10 16 0.00 0.00
5:53 pm 17:53 Sunny 75 23.9 47 8.3 37 37 undefined N/A 30.07 1018 10 16 0.00 0.00
6:53 pm 18:53 Sunny 72 22.2 50 10 46 46 NNW 3 6 30.07 1018 10 16 0.00 0.00
7:53 pm 19:53 Sunny 63 17.2 56 13.3 78 78 Calm 30.08 1019 10 16 0.00 0.00
8:53 pm 20:53 Clear 57 13.9 56 13.3 96 96 Calm 30.09 1019 10 16 0.00 0.00
9:53 pm 21:53 Clear 58 14.4 55 12.8 90 90 Calm 30.11 1020 10 16 0.00 0.00
10:53 pm 22:53 Clear 54 12.2 54 12.2 100 100 Calm 30.12 1020 10 16 0.00 0.00
11:53 pm 23:53 Clear 54 12.2 54 12.2 100 100 Calm 30.13 1020 10 16 0.00 0.00

Powered by AerisWeather